TimeCDT,TemperatureF,Dew PointF,Humidity,Sea Level PressureIn,VisibilityMPH,Wind Direction,Wind SpeedMPH,Gust SpeedMPH,PrecipitationIn,Events,Conditions,WindDirDegrees,DateUTC
12:47 AM,53.6,51.8,94,29.93,1.8,Calm,Calm,-,N/A,,Clear,0,2013-09-11 05:47:00
12:53 AM,54.0,52.0,93,29.94,1.2,Calm,Calm,-,N/A,,Clear,0,2013-09-11 05:53:00
12:59 AM,55.4,53.6,94,29.93,3.0,Calm,Calm,-,N/A,,Clear,0,2013-09-11 05:59:00
1:18 AM,55.4,53.6,94,29.94,1.8,Calm,Calm,-,N/A,,Clear,0,2013-09-11 06:18:00
1:28 AM,53.6,53.6,100,29.94,0.8,Calm,Calm,-,N/A,,Clear,0,2013-09-11 06:28:00
1:32 AM,53.6,51.8,94,29.94,1.8,Calm,Calm,-,N/A,,Partly Cloudy,0,2013-09-11 06:32:00
1:34 AM,53.6,51.8,94,29.94,3.0,Calm,Calm,-,N/A,,Clear,0,2013-09-11 06:34:00
1:41 AM,53.6,51.8,94,29.94,2.0,Calm,Calm,-,N/A,,Partly Cloudy,0,2013-09-11 06:41:00
1:44 AM,53.6,51.8,94,29.94,1.0,Calm,Calm,-,N/A,,Mist,0,2013-09-11 06:44:00
1:51 AM,53.6,51.8,94,29.94,0.5,Calm,Calm,-,N/A,Fog,Fog,0,2013-09-11 06:51:00
1:53 AM,53.1,52.0,96,29.95,0.5,Calm,Calm,-,N/A,Fog,Fog,0,2013-09-11 06:53:00
2:13 AM,53.6,51.8,94,29.94,1.5,Calm,Calm,-,N/A,,Partly Cloudy,0,2013-09-11 07:13:00
2:21 AM,53.6,51.8,94,29.94,0.8,Calm,Calm,-,N/A,,Mist,0,2013-09-11 07:21:00
2:53 AM,51.1,50.0,96,29.94,0.2,Calm,Calm,-,N/A,Fog,Fog,0,2013-09-11 07:53:00
3:06 AM,51.8,51.8,100,29.94,0.5,Calm,Calm,-,N/A,Fog,Fog,0,2013-09-11 08:06:00
3:15 AM,53.6,51.8,94,29.94,2.5,Calm,Calm,-,N/A,,Overcast,0,2013-09-11 08:15:00
3:22 AM,53.6,51.8,94,29.94,2.0,Calm,Calm,-,N/A,,Overcast,0,2013-09-11 08:22:00
3:31 AM,53.6,51.8,94,29.93,9.0,Calm,Calm,-,N/A,,Overcast,0,2013-09-11 08:31:00
3:48 AM,55.4,53.6,94,29.93,1.8,Calm,Calm,-,N/A,,Overcast,0,2013-09-11 08:48:00
3:53 AM,55.9,54.0,93,29.93,0.8,Calm,Calm,-,N/A,,Overcast,0,2013-09-11 08:53:00
4:04 AM,57.2,55.4,94,29.93,2.0,Calm,Calm,-,N/A,,Overcast,0,2013-09-11 09:04:00
4:12 AM,57.2,55.4,94,29.93,5.0,Calm,Calm,-,N/A,,Overcast,0,2013-09-11 09:12:00
4:37 AM,57.2,55.4,94,29.93,2.5,Calm,Calm,-,N/A,,Overcast,0,2013-09-11 09:37:00
4:53 AM,57.0,55.0,93,29.93,2.0,Calm,Calm,-,0.01,,Overcast,0,2013-09-11 09:53:00
5:01 AM,57.2,55.4,94,29.93,1.0,Calm,Calm,-,N/A,,Overcast,0,2013-09-11 10:01:00
5:11 AM,57.2,55.4,94,29.93,0.8,Calm,Calm,-,N/A,,Mist,0,2013-09-11 10:11:00
5:53 AM,57.0,55.0,93,29.93,0.5,Calm,Calm,-,N/A,Fog,Fog,0,2013-09-11 10:53:00
6:28 AM,55.4,55.4,100,29.93,1.0,Calm,Calm,-,N/A,,Overcast,0,2013-09-11 11:28:00
6:49 AM,55.4,53.6,94,29.93,0.5,SSW,3.5,-,N/A,Fog,Fog,200,2013-09-11 11:49:00
6:53 AM,55.0,54.0,96,29.94,0.2,Calm,Calm,-,N/A,Fog,Fog,0,2013-09-11 11:53:00
7:27 AM,55.4,53.6,94,29.94,0.8,Calm,Calm,-,N/A,,Mist,0,2013-09-11 12:27:00
7:35 AM,55.4,53.6,94,29.94,1.8,Calm,Calm,-,N/A,,Mostly Cloudy,0,2013-09-11 12:35:00
7:43 AM,55.4,53.6,94,29.94,2.0,Calm,Calm,-,N/A,,Mostly Cloudy,0,2013-09-11 12:43:00
7:53 AM,55.9,55.0,97,29.95,1.8,Calm,Calm,-,N/A,,Mostly Cloudy,0,2013-09-11 12:53:00
8:00 AM,57.2,55.4,94,29.94,2.0,Calm,Calm,-,N/A,,Scattered Clouds,0,2013-09-11 13:00:00
8:10 AM,57.2,55.4,94,29.94,7.0,Calm,Calm,-,N/A,,Partly Cloudy,0,2013-09-11 13:10:00
8:44 AM,60.8,57.2,88,29.94,10.0,Calm,Calm,-,N/A,,Mostly Cloudy,0,2013-09-11 13:44:00
8:53 AM,62.1,59.0,90,29.95,10.0,WNW,6.9,-,N/A,,Overcast,290,2013-09-11 13:53:00
9:41 AM,66.2,60.8,83,29.96,10.0,NW,11.5,17.3,N/A,,Scattered Clouds,310,2013-09-11 14:41:00
9:53 AM,66.0,59.0,78,29.97,10.0,NW,17.3,24.2,N/A,,Partly Cloudy,320,2013-09-11 14:53:00
10:53 AM,70.0,55.9,61,29.99,10.0,NNW,17.3,-,N/A,,Clear,330,2013-09-11 15:53:00
11:53 AM,72.0,51.1,48,30.00,10.0,NNW,17.3,23.0,N/A,,Clear,330,2013-09-11 16:53:00
12:53 PM,72.0,51.1,48,30.00,10.0,NW,16.1,24.2,N/A,,Partly Cloudy,320,2013-09-11 17:53:00
1:53 PM,75.0,51.1,43,30.01,10.0,NNW,16.1,24.2,N/A,,Clear,330,2013-09-11 18:53:00
2:53 PM,73.0,51.1,46,30.01,10.0,NW,12.7,-,N/A,,Clear,320,2013-09-11 19:53:00
3:53 PM,75.0,50.0,41,30.00,10.0,WNW,10.4,16.1,N/A,,Scattered Clouds,290,2013-09-11 20:53:00
4:53 PM,73.0,51.1,46,29.99,10.0,WNW,4.6,-,N/A,,Mostly Cloudy,290,2013-09-11 21:53:00
5:53 PM,70.0,55.9,61,29.99,10.0,Calm,Calm,-,0.00,Rain,Light Rain,0,2013-09-11 22:53:00
6:53 PM,62.1,55.9,80,30.05,10.0,North,29.9,43.7,0.04,Rain,Light Rain,350,2013-09-11 23:53:00
7:08 PM,57.2,51.8,82,30.04,10.0,North,17.3,33.4,0.00,Rain,Light Rain,10,2013-09-12 00:08:00
7:53 PM,57.0,51.1,81,30.04,10.0,North,-9999.0,-,0.00,,Scattered Clouds,0,2013-09-12 00:53:00
8:53 PM,-9999,-9999,N/A,30.06,-9999.0,North,-9999.0,-,N/A,,Unknown,0,2013-09-12 01:53:00
9:53 PM,52.0,50.0,93,30.09,10.0,NW,3.5,-,N/A,,Clear,310,2013-09-12 02:53:00
10:53 PM,50.0,48.9,96,30.10,3.0,NW,4.6,-,N/A,,Clear,310,2013-09-12 03:53:00
11:23 PM,51.8,50.0,94,30.09,10.0,NW,6.9,-,N/A,,Partly Cloudy,310,2013-09-12 04:23:00
11:53 PM,51.1,48.9,92,30.10,10.0,Calm,Calm,-,N/A,,Clear,0,2013-09-12 04:53:00